Location: Gelderswoude
(52.0918°N, 4.5323°E)
Time: 01:46:14
(UTC+00:00)

Daily predictions for brighter satellites

Satellite Brightness Start Highest point End
(mag) Time Altitude Azimuth Time Altitude Azimuth Time Altitude Azimuth
Cosmos 1726 2.0 00:03:39 10° N 00:07:22 89° W 00:08:21 47° S
Okean 2 Rocket 4.2 00:03:29 10° NNW 00:07:23 32° W 00:08:51 25° SW
Cosmos 1400 Rocket 3.3 00:04:28 10° NNW 00:08:25 48° W 00:09:29 37° SW
Cosmos 1707 3.2 00:08:01 35° SE 00:09:10 48° E 00:12:54 10° NNE
APEX 4.0 00:05:28 10° NNW 00:09:54 70° NE 00:14:23 15° SE
Cosmos 2151 Rocket 4.4 00:05:48 10° NNW 00:09:59 38° W 00:11:31 29° SW
ISS -2.7 00:07:18 10° W 00:09:22 31° WSW 00:09:22 31° WSW
Cosmos 1605 Rocket 4.3 00:04:31 10° NNW 00:10:38 56° W 00:14:00 27° SSW
SL-16 R/B 3.7 00:07:15 10° SE 00:12:59 39° ENE 00:18:43 10° N
[s.n.48477] 4.4 00:14:55 19° E 00:14:55 19° E 00:15:46 10° ENE
Cosmos 407 Rocket 4.1 00:08:49 10° NNW 00:14:07 56° ENE 00:18:47 13° SE
USA 276 2.4 00:16:00 47° SE 00:16:00 47° SE 00:18:33 10° E
Cosmos 2173 Rocket 4.1 00:11:32 10° N 00:17:44 73° ENE 00:21:56 22° SSE
Cosmos 1758 3.3 00:15:26 10° N 00:19:32 90° ENE 00:21:04 38° S
Cosmos 1697 Rocket 3.6 00:17:48 24° SSE 00:20:25 36° ESE 00:25:30 10° NE
Cosmos 1315 Rocket 2.8 00:17:16 10° NNW 00:21:19 81° ENE 00:22:58 35° SSE
Lacrosse 4 Rocket 2.8 00:22:41 24° SE 00:24:02 29° ESE 00:27:50 10° NE
OPS 6432 4.4 00:23:15 39° SW 00:24:33 80° SE 00:27:48 10° NE
Cosmos 1378 Rocket 3.7 00:24:41 33° SW 00:26:25 60° WNW 00:30:42 10° N
PSLV R/B 3.6 00:23:44 10° N 00:28:03 72° WNW 00:29:49 34° SSW
Cosmos 1975 Rocket 3.6 00:28:30 28° SSE 00:30:27 50° E 00:34:38 10° NNE
Lacrosse 5 2.2 00:28:51 10° WSW 00:33:56 67° NNW 00:39:02 10° ENE
Cosmos 1626 4.0 00:32:21 15° SE 00:34:13 22° E 00:37:07 10° NE
Cosmos 1980 Rocket 3.6 00:32:16 17° SSE 00:35:24 27° ESE 00:40:03 10° NE
Meteor 1-16 Rocket 4.5 00:29:32 10° N 00:35:28 72° ENE 00:39:44 19° SSE
Cosmos 1025 Rocket 4.4 00:33:45 18° SE 00:36:13 32° E 00:40:08 10° NNE
Cosmos 1674 3.6 00:35:01 26° SE 00:36:35 41° E 00:40:12 10° NNE
Cosmos 614 Rocket 4.1 00:37:28 10° NNW 00:42:28 55° WSW 00:44:55 28° S
In-Cosmos 22 4.2 00:39:42 27° S 00:42:49 72° E 00:48:14 10° NNE
SeaSat 1 2.5 00:37:56 10° NE 00:42:52 68° ESE 00:45:24 29° SSW
Cosmos 2061 Rocket 4.2 00:37:51 10° N 00:44:14 73° ENE 00:49:17 17° SSE
Cosmos 1656 3.6 00:41:26 27° SSW 00:44:32 89° WNW 00:50:09 10° NNE
Timation 2 Rocket 4.2 00:39:05 10° NW 00:44:47 47° WSW 00:47:54 26° S
ADEOS II 4.2 00:41:20 10° NE 00:44:56 18° E 00:48:30 10° SE
Cosmos 2227 Rocket 2.5 00:40:59 10° NW 00:46:25 48° WSW 00:49:13 26° S
Cosmos 2297 Rocket 2.9 00:42:56 10° NW 00:48:06 37° WSW 00:50:26 26° SSW
YAOGAN 11 4.2 00:50:48 31° SSW 00:52:38 57° WSW 00:56:54 10° NNW
USA 281 3.2 00:47:49 10° SSE 00:54:23 86° ENE 01:01:01 10° NNW
Cosmos 2100 Rocket 4.2 00:48:42 10° NNW 00:54:57 63° W 00:58:54 24° SSW
Okean 1 Rocket 4.3 00:51:29 10° NNW 00:55:11 27° W 00:56:40 22° WSW
Cosmos 1140 Rocket 3.4 00:50:03 10° NNW 00:55:19 85° WSW 00:59:21 17° SSE
Cosmos 2056 Rocket 4.4 00:56:00 19° SSE 00:59:02 38° ESE 01:03:48 10° NE
CZ-3B R/B 4.0 00:38:50 10° SW 01:02:37 71° SSE 01:07:39 10° ENE
Cosmos 2123 Rocket 4.1 00:58:42 21° S 01:03:00 72° E 01:09:14 10° NNE
Helios 1A 3.3 01:01:29 30° SSW 01:03:09 48° W 01:07:12 10° NNW
[s.n.48476] 2.5 01:02:07 31° W 01:03:10 72° N 01:05:45 10° E
[s.n.48475] 2.5 01:02:11 31° W 01:03:14 71° N 01:05:49 10° E
[s.n.48474] 2.5 01:02:16 31° W 01:03:18 71° N 01:05:54 10° E
[s.n.48472] 2.5 01:02:25 31° W 01:03:28 71° N 01:06:03 10° E
[s.n.48473] 2.5 01:02:26 31° W 01:03:29 71° N 01:06:05 10° E
[s.n.48471] 2.6 01:02:20 29° W 01:03:30 72° N 01:06:09 10° E
Cosmos 1802 Rocket 4.0 00:57:23 10° NNW 01:03:31 70° W 01:07:39 22° S
[s.n.48470] 2.5 01:02:35 31° W 01:03:39 71° N 01:06:13 10° E
[s.n.48469] 2.5 01:02:41 31° W 01:03:44 71° N 01:06:20 10° E
[s.n.48468] 2.5 01:02:43 31° W 01:03:46 71° N 01:06:22 10° E
[s.n.48467] 2.5 01:02:48 31° W 01:03:52 71° N 01:06:28 10° E
[s.n.48466] 2.5 01:02:48 31° W 01:03:52 71° N 01:06:28 10° E
[s.n.48465] 2.5 01:02:57 30° W 01:04:01 71° N 01:06:37 10° E
[s.n.48464] 2.5 01:02:58 30° W 01:04:03 71° N 01:06:39 10° E
[s.n.48463] 2.6 01:03:05 30° W 01:04:10 71° N 01:06:46 10° E
[s.n.48462] 2.5 01:03:09 30° W 01:04:14 71° N 01:06:50 10° E
[s.n.48461] 2.5 01:03:14 30° W 01:04:19 71° N 01:06:55 10° E
[s.n.48460] 2.6 01:03:13 30° W 01:04:19 71° N 01:06:56 10° E
[s.n.48459] 2.6 01:03:24 30° W 01:04:31 71° N 01:07:07 10° E
[s.n.48458] 2.6 01:03:21 28° W 01:04:33 71° N 01:07:11 10° E
[s.n.48457] 2.6 01:03:32 29° W 01:04:39 71° N 01:07:16 10° E
[s.n.48456] 2.6 01:03:33 29° W 01:04:41 71° N 01:07:17 10° E
[s.n.48455] 2.6 01:03:43 29° W 01:04:51 71° N 01:07:27 10° E
[s.n.48454] 2.6 01:03:45 29° W 01:04:52 71° N 01:07:28 10° E
[s.n.48453] 2.6 01:03:50 29° W 01:04:57 71° N 01:07:33 10° E
[s.n.48451] 2.6 01:03:57 29° W 01:05:04 71° N 01:07:40 10° E
[s.n.48452] 2.6 01:03:57 29° W 01:05:04 71° N 01:07:40 10° E
[s.n.48450] 2.6 01:03:58 29° W 01:05:06 71° N 01:07:42 10° E
[s.n.48449] 2.6 01:04:07 29° W 01:05:14 71° N 01:07:51 10° E
[s.n.48448] 2.6 01:04:11 29° W 01:05:20 71° N 01:07:56 10° E
[s.n.48447] 2.6 01:04:20 29° W 01:05:28 71° N 01:08:04 10° E
[s.n.48446] 2.6 01:04:21 29° W 01:05:31 71° N 01:08:07 10° E
[s.n.48445] 2.6 01:04:26 29° W 01:05:35 71° N 01:08:10 10° E
Cosmos 2082 3.8 00:59:59 10° NW 01:05:37 62° WSW 01:09:53 18° S
[s.n.48443] 2.6 01:04:33 29° W 01:05:42 71° N 01:08:18 10° E
[s.n.48442] 2.6 01:04:30 27° W 01:05:46 71° N 01:08:26 10° E
[s.n.48444] 2.6 01:04:33 27° W 01:05:47 71° N 01:08:26 10° E
[s.n.48440] 2.6 01:04:41 28° W 01:05:50 71° N 01:08:27 10° E
[s.n.48441] 2.6 01:04:40 28° W 01:05:52 71° N 01:08:29 10° E
[s.n.48439] 2.6 01:04:52 28° W 01:06:02 71° N 01:08:38 10° E
[s.n.48438] 2.6 01:04:52 28° W 01:06:02 71° N 01:08:38 10° E
[s.n.48437] 2.6 01:04:55 27° W 01:06:11 71° N 01:08:50 10° E
[s.n.48436] 2.6 01:05:06 28° W 01:06:16 71° N 01:08:52 10° E
[s.n.48435] 2.6 01:05:10 28° W 01:06:20 71° N 01:08:57 10° E
[s.n.48434] 2.6 01:05:11 28° W 01:06:21 71° N 01:08:58 10° E
[s.n.48433] 2.6 01:05:19 28° W 01:06:30 71° N 01:09:06 10° E
[s.n.48432] 2.6 01:05:25 28° W 01:06:37 71° N 01:09:12 10° E
[s.n.48431] 2.6 01:05:30 28° W 01:06:42 71° N 01:09:18 10° E
[s.n.48430] 2.6 01:05:33 27° W 01:06:45 71° N 01:09:22 10° E
[s.n.48429] 2.6 01:05:34 27° W 01:06:48 71° N 01:09:24 10° E
[s.n.48428] 2.6 01:05:39 26° W 01:06:56 71° N 01:09:34 10° E
Cosmos 2369 4.0 01:03:59 23° S 01:07:29 60° ESE 01:13:08 10° NE
Resurs 1-4 Rocket 2.6 01:03:51 10° NNE 01:09:02 53° E 01:12:44 19° S
COSMOS 2455 4.3 01:06:09 10° WNW 01:10:12 19° WSW 01:11:47 17° SW
Cosmos 1371 Rocket 4.4 01:09:07 22° S 01:12:22 54° ESE 01:17:26 10° NNE
BREEZE-M DEB (TANK) 3.8 01:09:55 24° SSW 01:12:33 43° SE 01:24:48 10° ENE
USA 215 3.3 01:06:50 10° SE 01:13:12 54° SW 01:19:37 10° WNW
Cosmos 1953 2.6 01:10:04 10° NNW 01:13:59 53° W 01:15:48 28° SSW
Cosmos 1300 3.6 01:10:19 10° N 01:14:02 47° ENE 01:17:23 12° SSE
SL-16 R/B 4.3 01:14:06 10° SE 01:17:44 18° E 01:21:23 10° ENE
Cosmos 371 Rocket 3.8 01:15:27 21° SW 01:18:31 54° WNW 01:23:21 10° NNE
Cosmos 1544 Rocket 3.6 01:14:37 10° NNW 01:19:02 69° W 01:21:46 23° S
CZ-2D R/B 2.4 01:13:46 10° NNE 01:19:08 62° ESE 01:22:59 19° S
[s.n.48487] 2.7 01:18:22 17° W 01:20:16 68° N 01:22:57 10° E
[s.n.48486] 2.7 01:18:28 17° W 01:20:23 68° N 01:23:03 10° E
[s.n.48485] 2.7 01:18:34 17° W 01:20:30 68° N 01:23:10 10° E
[s.n.48484] 2.7 01:18:36 17° W 01:20:32 68° N 01:23:13 10° E
[s.n.48482] 2.7 01:18:46 17° W 01:20:42 68° N 01:23:23 10° E
[s.n.48483] 2.7 01:18:46 17° W 01:20:42 68° N 01:23:23 10° E
[s.n.48481] 2.7 01:18:58 17° W 01:20:54 68° N 01:23:35 10° E
[s.n.48480] 2.7 01:19:05 17° W 01:21:00 68° N 01:23:40 10° E
[s.n.48479] 2.7 01:19:12 17° W 01:21:07 68° N 01:23:47 10° E
[s.n.48478] 2.7 01:19:11 17° W 01:21:07 68° N 01:23:48 10° E
Cosmos 332 Rocket 3.9 01:22:27 23° SW 01:25:29 70° WNW 01:30:21 10° NNE
KORONAS-FOTON 4.1 01:24:08 26° SSW 01:26:08 59° WNW 01:30:00 10° N
Cosmos 1455 Rocket 3.8 01:24:17 10° NNW 01:28:17 36° W 01:30:21 23° SW
NPP 3.9 01:25:05 10° NNE 01:30:28 64° ESE 01:34:43 16° S
MINOTAUR 4 R/B 4.1 01:28:40 16° SSE 01:31:29 79° ENE 01:35:04 10° NNW
Aureole 2 Rocket 1.6 01:30:10 10° NNW 01:32:51 84° WSW 01:34:17 24° SSE
Cosmos 1340 3.9 01:30:08 14° SSE 01:32:59 36° E 01:36:27 10° NNE
Cosmos 2263 Rocket 2.2 01:27:20 10° NNW 01:33:03 85° ENE 01:38:44 10° SSE
SL-14 R/B 3.5 01:30:29 20° S 01:33:07 65° E 01:37:06 10° NNE
ATLAS CENTAUR R/B 4.2 01:31:38 10° NW 01:33:46 14° N 01:35:58 10° NNE
Iridium 2 4.4 01:31:01 15° SSE 01:33:56 50° E 01:37:38 10° NNE
Cosmos 1190 Rocket 4.3 01:33:39 10° NW 01:38:40 47° WSW 01:42:33 16° S
Cosmos 2322 Rocket 4.2 01:37:21 10° SSE 01:41:28 21° E 01:45:37 10° NE
Helios 1B rocket 2.4 01:37:57 10° NNE 01:42:07 87° ESE 01:44:58 20° SSW
Cosmos 1536 Rocket 3.6 01:40:49 18° S 01:44:03 83° ESE 01:48:34 10° NNE
[s.n.48477] 2.4 01:44:29 12° W 01:46:33 65° N 01:48:52 10° E
Cosmos 1725 Rocket 4.4 01:41:26 10° NNW 01:47:23 48° W 01:52:06 16° SSW
ARGOS Delta rocket 4.0 01:43:23 10° NNE 01:48:09 74° E 01:52:27 14° S
Cosmos 1420 Rocket 4.3 01:45:16 16° S 01:49:19 63° ESE 01:54:28 10° NNE
CZ-4C R/B 4.5 01:45:42 10° SE 01:49:38 45° ENE 01:53:24 10° N
Cosmos 2233 Rocket 4.0 01:44:14 10° NNW 01:50:23 66° W 01:56:03 12° S
AQUA 3.9 01:45:44 10° NNE 01:50:32 76° ESE 01:54:29 15° S
USA 276 2.4 01:48:23 10° W 01:51:27 44° SSW 01:54:30 10° ESE
Meteor 1-28 Rocket 3.7 01:49:40 10° SSE 01:53:19 60° ENE 01:57:02 10° N
SL-16 R/B 2.8 01:51:08 13° S 01:56:29 50° W 02:02:34 10° NNW
IDEFIX/ARIANE 42P 3.9 01:52:42 10° NNE 01:57:35 37° E 02:02:26 10° SSE
UNK 4.2 01:54:32 16° SSW 01:57:50 43° W 02:02:13 10° NNW
Cosmos 2360 Rocket 4.5 01:57:18 10° SE 02:00:57 18° E 02:04:35 10° ENE
Lacrosse 4 Rocket 2.2 01:58:58 14° WSW 02:02:33 48° NW 02:06:49 10° NNE
Cosmos 676 Rocket 4.3 01:58:44 10° NW 02:03:46 47° WSW 02:08:50 10° S
Cosmos 1697 Rocket 3.3 01:59:31 14° SW 02:04:15 49° NW 02:09:44 10° NNE
Landsat 4 3.7 02:00:34 10° NNE 02:04:22 85° E 02:07:29 15° SSW
Cosmos 2084 3.5 02:01:59 10° NW 02:06:21 60° SW 02:10:49 10° SSE
Meteor 1-29 2.9 02:03:18 10° NNE 02:06:44 89° WNW 02:09:26 16° SSW
GP-B 3.1 02:02:37 10° N 02:07:04 73° W 02:11:08 12° S
Cosmos 1626 3.1 02:06:51 16° SW 02:09:15 34° WNW 02:12:40 10° N
Cosmos 1346 Rocket 4.3 02:06:03 10° SSE 02:09:32 32° E 02:13:04 10° NNE
Cosmos 1674 4.4 02:09:47 12° WSW 02:12:16 21° WNW 02:15:13 10° NNW
Cosmos 1025 Rocket 4.1 02:10:38 14° SW 02:13:48 33° WNW 02:17:48 10° N
Meteor 1-24 Rocket 3.6 02:08:39 11° S 02:13:53 87° E 02:19:15 10° NNE
CBERS-1 4.4 02:10:54 10° NNE 02:15:59 61° ESE 02:21:02 10° S
Lacrosse 5 2.9 02:12:32 10° WNW 02:17:29 48° N 02:22:25 10° ENE
Cosmos 1624 Rocket 4.4 02:13:41 14° SW 02:18:15 56° WNW 02:23:32 10° NNE
Cosmos 1980 Rocket 2.4 02:14:01 14° SW 02:19:00 65° NW 02:24:39 10° NNE
SeaSat 1 3.9 02:15:52 10° NNE 02:20:05 29° NW 02:24:18 10° W
ADEOS II 2.1 02:19:58 10° NNE 02:25:16 81° WNW 02:30:31 10° SSW
SL-19 R/B 4.4 02:19:55 10° NNE 02:25:24 62° WNW 02:30:25 11° SW
ADEOS Rocket 3.6 02:20:25 10° S 02:28:05 69° WSW 02:35:52 10° NNW
Meteor 2-10 Rocket 3.7 02:26:25 10° NNW 02:32:04 64° W 02:37:27 10° S
Cosmos 405 3.9 02:31:18 10° NNW 02:34:27 31° W 02:37:34 10° SSW
Cosmos 2285 Rocket 4.4 02:30:54 11° SW 02:37:02 56° WNW 02:43:24 10° NNE
[s.n.48476] 2.3 02:34:44 10° WNW 02:37:19 89° SSW 02:39:55 10° ESE
[s.n.48475] 2.3 02:34:46 10° WNW 02:37:23 89° SSW 02:39:59 10° ESE
[s.n.48474] 2.3 02:34:52 10° WNW 02:37:28 89° S 02:40:04 10° ESE
[s.n.48472] 2.3 02:35:01 10° WNW 02:37:37 89° S 02:40:14 10° ESE
[s.n.48473] 2.3 02:35:03 10° WNW 02:37:39 89° SSW 02:40:16 10° ESE
[s.n.48471] 2.4 02:35:01 10° WNW 02:37:41 89° SSW 02:40:19 10° ESE
[s.n.48470] 2.3 02:35:12 10° WNW 02:37:48 89° SSW 02:40:24 10° ESE
[s.n.48469] 2.3 02:35:18 10° WNW 02:37:54 89° SSW 02:40:30 10° ESE
[s.n.48468] 2.3 02:35:20 10° WNW 02:37:56 89° SSW 02:40:32 10° ESE
[s.n.48467] 2.3 02:35:25 10° WNW 02:38:02 89° SSW 02:40:38 10° ESE
[s.n.48466] 2.3 02:35:26 10° WNW 02:38:02 89° SSW 02:40:38 10° ESE
Cosmos 1452 Rocket 3.6 02:32:51 10° SSW 02:38:08 86° ESE 02:43:28 10° NNE
[s.n.48465] 2.3 02:35:35 10° WNW 02:38:11 89° SSW 02:40:48 10° ESE
[s.n.48464] 2.3 02:35:37 10° WNW 02:38:13 89° S 02:40:49 10° ESE
[s.n.48463] 2.3 02:35:44 10° WNW 02:38:21 88° S 02:40:57 10° ESE
[s.n.48462] 2.3 02:35:48 10° WNW 02:38:24 88° SSW 02:41:01 10° ESE
[s.n.48461] 2.3 02:35:53 10° WNW 02:38:30 88° S 02:41:06 10° ESE
[s.n.48460] 2.3 02:35:53 10° WNW 02:38:30 88° S 02:41:06 10° ESE
[s.n.48459] 2.3 02:36:05 10° WNW 02:38:41 88° SSW 02:41:18 10° ESE
[s.n.48458] 2.4 02:36:05 10° WNW 02:38:44 88° S 02:41:22 10° ESE
[s.n.48457] 2.3 02:36:14 10° WNW 02:38:51 88° S 02:41:27 10° ESE
[s.n.48456] 2.3 02:36:15 10° WNW 02:38:51 88° SSW 02:41:28 10° ESE
NOSS 3-2 (A) 3.9 02:33:24 10° SSW 02:38:55 55° SE 02:45:19 10° NE
[s.n.48455] 2.3 02:36:24 10° WNW 02:39:01 88° SSW 02:41:38 10° ESE
[s.n.48454] 2.3 02:36:25 10° WNW 02:39:02 88° SSW 02:41:38 10° ESE
[s.n.48453] 2.3 02:36:31 10° WNW 02:39:08 88° SSW 02:41:44 10° ESE
[s.n.48451] 2.3 02:36:38 10° WNW 02:39:14 88° SSW 02:41:51 10° ESE
[s.n.48452] 2.3 02:36:38 10° WNW 02:39:14 88° SSW 02:41:51 10° ESE
[s.n.48450] 2.3 02:36:40 10° WNW 02:39:16 88° SSW 02:41:53 10° ESE
[s.n.48449] 2.3 02:36:49 10° WNW 02:39:26 88° S 02:42:02 10° ESE
[s.n.48448] 2.3 02:36:53 10° WNW 02:39:30 88° SSW 02:42:07 10° ESE
USA 281 4.3 02:34:29 10° SSW 02:39:37 24° W 02:44:48 10° NW
[s.n.48447] 2.3 02:37:03 10° WNW 02:39:39 87° SSW 02:42:16 10° ESE
[s.n.48446] 2.3 02:37:05 10° WNW 02:39:42 87° S 02:42:18 10° ESE
[s.n.48445] 2.3 02:37:09 10° WNW 02:39:45 87° S 02:42:22 10° ESE
[s.n.48443] 2.3 02:37:16 10° WNW 02:39:53 87° S 02:42:29 10° ESE
[s.n.48442] 2.4 02:37:18 10° WNW 02:39:58 87° SSW 02:42:37 10° ESE
[s.n.48444] 2.4 02:37:19 10° WNW 02:39:58 87° SSW 02:42:38 10° ESE
[s.n.48440] 2.3 02:37:24 10° WNW 02:40:01 87° SSW 02:42:39 10° ESE
[s.n.48441] 2.3 02:37:25 10° WNW 02:40:03 87° SSW 02:42:41 10° ESE
[s.n.48439] 2.3 02:37:36 10° WNW 02:40:12 87° SSW 02:42:49 10° ESE
[s.n.48438] 2.3 02:37:36 10° WNW 02:40:13 87° SSW 02:42:50 10° ESE
[s.n.48437] 2.4 02:37:44 10° WNW 02:40:23 87° S 02:43:02 10° ESE
[s.n.48436] 2.3 02:37:50 10° WNW 02:40:27 87° SSW 02:43:04 10° ESE
[s.n.48435] 2.3 02:37:55 10° WNW 02:40:31 87° SSW 02:43:08 10° ESE
[s.n.48434] 2.3 02:37:56 10° WNW 02:40:33 87° SSW 02:43:09 10° ESE
[s.n.48433] 2.3 02:38:05 10° WNW 02:40:41 87° SSW 02:43:18 10° ESE
[s.n.48432] 2.3 02:38:11 10° WNW 02:40:48 87° S 02:43:24 10° ESE
[s.n.48431] 2.3 02:38:16 10° WNW 02:40:52 87° SSW 02:43:29 10° ESE
[s.n.48430] 2.3 02:38:19 10° WNW 02:40:57 86° S 02:43:33 10° ESE
[s.n.48429] 2.3 02:38:22 10° WNW 02:40:59 86° S 02:43:36 10° ESE
[s.n.48428] 2.3 02:38:29 10° WNW 02:41:07 86° SSW 02:43:46 10° ESE
Cosmos 2056 Rocket 4.3 02:36:24 10° SW 02:41:11 39° NW 02:46:03 10° NNE
Cosmos 2228 3.6 02:40:18 10° NNW 02:44:20 40° W 02:48:22 10° SSW
Resurs 1-4 Rocket 3.3 02:44:06 10° N 02:48:38 30° WNW 02:53:08 10° WSW
IRS-P3 4.4 02:43:55 10° NNE 02:49:17 70° ESE 02:54:36 10° S
Cosmos 1300 4.4 02:46:45 10° NW 02:49:20 18° W 02:51:54 10° SW
Cosmos 1892 Rocket 3.6 02:45:28 10° S 02:49:48 86° E 02:54:10 10° NNE
Cosmos 2278 4.3 02:45:38 10° SW 02:51:08 47° NW 02:56:40 10° NNE
Cosmos 1110 Rocket 4.5 02:47:30 10° S 02:52:35 60° ESE 02:57:41 10° NNE
Meteor 2-5 Rocket 4.4 02:48:15 10° SW 02:53:34 42° WNW 02:58:51 10° N
[s.n.48487] 2.4 02:52:01 10° WNW 02:54:42 76° SSW 02:57:23 10° ESE
[s.n.48486] 2.4 02:52:07 10° WNW 02:54:48 75° SSW 02:57:29 10° ESE
[s.n.48485] 2.4 02:52:14 10° WNW 02:54:55 75° SSW 02:57:36 10° ESE
[s.n.48484] 2.4 02:52:16 10° WNW 02:54:57 75° SSW 02:57:38 10° ESE
[s.n.48482] 2.4 02:52:26 10° WNW 02:55:07 75° SSW 02:57:48 10° ESE
[s.n.48483] 2.4 02:52:26 10° WNW 02:55:07 75° SSW 02:57:48 10° ESE
[s.n.48481] 2.4 02:52:38 10° WNW 02:55:20 75° SSW 02:58:00 10° ESE
Cosmos 1850 Rocket 4.4 02:50:20 10° NW 02:55:25 44° WSW 03:00:26 10° S
[s.n.48480] 2.4 02:52:45 10° WNW 02:55:25 75° SSW 02:58:06 10° ESE
[s.n.48479] 2.4 02:52:52 10° WNW 02:55:33 75° SSW 02:58:13 10° ESE
[s.n.48478] 2.4 02:52:51 10° WNW 02:55:33 75° SSW 02:58:13 10° ESE
USA 238 DEB 4.1 02:49:32 10° SSW 02:55:57 58° SE 03:02:43 10° NE
USA 238 4.1 02:49:39 10° SSW 02:56:03 58° SE 03:02:48 10° NE
USA 215 4.5 02:53:06 10° SSW 02:57:17 18° WSW 03:01:28 10° W
Cosmos 2346 Rocket 4.5 02:52:13 10° S 02:58:17 85° W 03:04:23 10° N
CZ-2D R/B 3.5 02:54:23 10° N 02:58:50 27° WNW 03:03:13 10° WSW
CENTAUR R/B 3.1 02:55:01 10° SSW 03:00:51 56° SE 03:07:51 10° NE
SL-16 R/B 2.3 02:55:22 10° SSW 03:01:02 88° ESE 03:06:46 10° NNE
Cosmos 1726 Rocket 4.1 02:57:08 10° NNW 03:01:17 42° W 03:05:27 10° SSW
